RH
49 53 52 48 49 44 46 47 48 45 43 42 40 38 36 34 32 32 32 31 32 31 32 32 32 35 39 40 43 50 58 67 77 83 88 86 92 94 91 87 79 72 67 62
57 57 51 51 50 51 51 53 52 46 43 41 40 37 34 32 32 32 32 33 34 34 34 34 34 36 42 45 49 56 64 71 76 80 83 92 90 89 89 86 80 74 71 64
61 53 49 54 54 53 52 54 51 49 45 41 39 36 33 33 32 31 32 34 35 35 36 35 36 40 46 51 56 60 68 74 79 82 85 90 92 93 89 84 78 76 73 67
59 55 51 52 54 53 54 49 50 49 48 49 40 44 35 33 33 30 29 31 31 31 31 32 34 37 43 52 58 64 75 82 85 91 95 96 89 88 94 91 87 81 77 73
55 50 51 49 48 50 51 52 50 50 51 48 46 48 37 35 35 33 32 34 33 32 31 30 34 38 44 51 59 70 76 84 90 93 91 88 90 89 88 87 78 75 74 69
52 50 47 45 49 51 52 53 52 52 53 56 46 46 40 36 36 34 31 30 29 30 28 27 29 35 42 51 58 64 75 83 85 85 86 84 80 78 77 76 69 67 69 69
53 53 53 52 55 54 51 54 65 64 64 59 46 48 39 38 35 32 29 29 29 29 28 27 29 35 41 47 55 63 72 76 81 80 79 76 75 73 72 71 72 67 55 54
60 63 57 54 57 59 58 56 67 69 65 55 52 52 41 38 33 30 30 31 33 32 31 29 27 29 32 35 39 45 52 56 61 65 66 67 66 66 69 67 63 66 66 63
72 70 59 58 58 60 61 61 57 67 70 71 58 51 45 38 36 33 33 34 34 36 35 36 37 36 38 35 34 36 35 38 42 43 48 50 48 45 47 48 50 50 53 53
66 65 57 60 60 64 61 60 70 77 77 75 63 58 51 44 40 37 35 35 35 36 38 43 46 47 44 41 37 34 36 36 35 37 35 33 33 34 37 36 37 44 46 46
69 66 59 57 60 65 67 64 63 65 71 72 69 61 49 49 47 44 40 39 42 41 46 49 52 51 44 41 38 37 40 38 36 36 38 38 35 33 32 33 37 41 40 41
72 80 78 68 63 62 64 63 67 77 70 75 74 60 50 56 52 50 46 45 43 44 46 57 54 49 47 41 42 46 45 43 43 45 41 38 30 27 25 26 28 32 34 37
70 83 82 78 72 62 59 58 61 68 73 78 80 66 54 54 54 50 50 53 51 63 59 53 58 52 43 44 47 50 47 41 33 30 29 29 30 29 28 26 25 26 29 33
75 83 79 71 63 64 62 57 61 62 77 71 72 66 59 57 56 57 56 54 51 52 50 51 49 45 44 43 45 50 47 43 40 40 39 38 37 34 29 26 22 24 25 26
79 80 76 72 64 58 52 50 57 61 60 71 60 62 58 64 67 60 56 57 57 57 52 56 46 36 38 33 39 42 44 52 51 48 44 43 40 39 35 29 24 21 23 24
77 80 77 77 69 66 63 58 57 56 62 67 65 61 62 67 65 61 58 52 49 45 41 35 32 29 29 33 39 46 54 58 54 51 52 50 46 41 38 32 26 24 24 26
80 79 77 78 76 73 77 59 56 56 62 63 64 50 54 59 58 51 46 44 39 36 33 33 33 35 38 44 50 56 61 59 57 58 59 54 51 48 43 31 24 24 27 25
83 88 89 94 89 95 64 59 64 68 65 60 53 45 46 51 54 52 52 46 38 35 36 39 43 46 47 49 54 56 55 58 59 62 54 49 47 53 39 32 28 27 27 29
85 91 97 97 95 90 75 58 63 62 60 59 51 48 54 55 54 53 50 41 39 40 42 45 44 45 46 44 44 46 47 50 51 52 52 50 49 42 36 30 31 32 32 36
98 97 95 98 95 95 76 62 62 63 57 48 51 57 53 46 49 42 38 40 43 44 47 49 46 48 49 47 49 48 47 49 50 50 54 58 51 41 38 34 37 38 39 43
94 96 94 97 97 87 71 60 59 63 46 40 45 45 41 38 33 34 41 47 50 51 52 52 49 48 48 45 47 48 47 46 46 45 47 40 41 42 43 42 42 41 45 50
88 95 97 97 97 92 65 60 54 51 46 42 39 36 37 38 41 41 42 47 49 51 53 54 53 54 56 56 56 55 50 49 49 52 51 51 48 42 44 50 49 48 52 49
84 79 83 80 77 65 58 53 51 48 42 42 40 39 42 43 40 41 45 51 54 53 55 55 58 62 57 53 59 60 58 57 53 50 49 47 48 47 48 49 52 52 51 55
66 66 69 63 59 58 53 49 50 52 50 49 46 45 47 47 47 47 48 51 51 53 56 56 56 54 53 53 57 60 55 54 48 47 47 50 59 58 56 55 51 56 61 65
67 67 64 62 58 57 55 55 57 57 54 52 53 53 55 57 54 52 52 54 52 50 51 52 52 54 54 48 50 60 56 56 62 59 62 64 65 64 54 55 60 65 68 69
60 60 65 62 54 50 46 46 47 49 52 55 54 54 55 55 52 49 47 50 50 49 51 50 50 46 44 41 46 48 52 54 57 76 78 73 63 55 58 62 68 71 69 72